Location: Benque
(43.2594°N, 0.9178°E)
Time: 01:27:50
(UTC+00:00)

Cosmos 44 Rocket - Pass Details

Date: 24 January 2020
Orbit: 660 x 730 km, 65.1° (Epoch: 19 February)

Event Time Altitude Azimuth Distance (km) Brightness Sun altitude
Rises 18:50:25 0° 195° (SSW) 3,036 6.9 -20.5°
Reaches altitude 10° 18:52:49 10° 189° (S) 2,114 6.0 -21.0°
Enters shadow 18:56:56 43° 134° (SE) 939 3.6 -21.7°
